Tracking 22094 objects as of 17-Jan-2021
HD Live streaming from Space Station
objects crossing your sky now

STARLINK-1748

Track STARLINK-1748 now!
10-day predictions
STARLINK-1748 is classified as:


NORAD ID: 46570
Int'l Code: 2020-070AQ
Perigee: 552.9 km
Apogee: 555.8 km
Inclination: 53.1 °
Period: 95.6 minutes
Semi major axis: 6925 km
RCS: Unknown
Launch date: October 6, 2020
Source: United States (US)
Launch site: AIR FORCE EASTERN TEST RANGE (AFETR)
aabbcc
Your satellite tracking list
Your tracking list is empty




NASA's NSSDC Master Catalog

Two Line Element Set (TLE):
1 46570U 20070AQ  21017.25001157  .00042823  00000-0  28765-2 0  9992
2 46570  53.0565 304.7355 0002125  63.9952  82.9265 15.06398079 16815
Source of the keplerian elements: AFSPC